Regional Weather Roundup
Issued by NWS

Home | Current Version | Previous Version | Graphics & Text | Print | Product List | Glossary Off
Versions: 1 2 3 4 5 6 7 8 9 10 11 12 13 14 15 16 17 18 19 20 21 22 23 24 25 26 27 28 29 30 31 32 33 34 35 36 37 38 39 40 41 42 43 44 45 46 47 48 49 50

000
ASUS43 KDTX 300410
RWRMI
MICHIGAN HOURLY REGIONAL WEATHER ROUNDUP
NATIONAL WEATHER SERVICE DETROIT/PONTIAC MI
1200 AM EDT SAT AUG 30 2014

NOTE: "FAIR" INDICATES FEW OR NO CLOUDS BELOW 12,000 FEET WITH NO
SIGNIFICANT WEATHER AND/OR OBSTRUCTION TO VISIBILITY.

MIZ047>049-052>055-059>063-066>070-074>076-081>083-300500-
SOUTHEAST LOWER MICHIGAN

CITY           SKY/WX    TMP DP  RH WIND       PRES   REMARKS
ADRIAN         PTCLDY    68  63  84 S5        30.03F
ALMA           CLOUDY    70  64  80 S6        29.99R
ANN ARBOR      MOCLDY    68  62  81 SE6       30.03F
BAD AXE        CLOUDY    66  56  68 S12       30.03R
DETROIT CITY   MOCLDY    71  61  70 SE5       30.04S
DETROIT        MOCLDY    70  62  76 CALM      30.04S
FLINT          CLOUDY    71  57  61 S10       30.02R
GROSSE ILE     MOCLDY    73  66  78 SE7       30.03S
HILLSDALE      PTCLDY    71  67  85 CALM      30.03S
HOWELL         MOCLDY    67  61  79 SE8       30.02F

CITY           SKY/WX    TMP DP  RH WIND       PRES   REMARKS
JACKSON        PTCLDY    68  63  84 SE5       30.02S
LAMBERTVILLE   PTCLDY    66  63  88 CALM      30.04R
LANSING        MOCLDY    71  62  73 S10       30.01R
LAPEER         NOT AVBL
MASON          PTCLDY    67  62  84 S6        30.01S
MONROE         PTCLDY    73  66  78 SE5       30.02S
MT. CLEMENS    MOCLDY    68  63  82 SE6       30.04R
PONTIAC        MOCLDY    68  57  68 SE6       30.04S
PORT HOPE        N/A     68  54  60 S8        29.99F
PORT HURON     PTCLDY    64  61  88 SE5       30.05S
TRI CITIES     MOCLDY    72  57  59 S13       29.99S
YPSILANTI      MOCLDY    71  62  73 SE5       30.04S
$$
MIZ043>046-050>051-056>058-064>065-071>073-077>080-300500-
SOUTHWEST LOWER MICHIGAN

CITY           SKY/WX    TMP DP  RH WIND       PRES   REMARKS
BATTLE CREEK   MOCLDY    74  66  76 SE10      29.99F
BENTON HARBOR  LGT RAIN  71  67  87 SE12      29.93F
BIG RAPIDS     MOCLDY    70  68  93 SE8       29.95S
COLDWATER      MOCLDY    75  66  75 SE6       30.00F
HOLLAND        PTCLDY    76  69  79 S10       29.94F THUNDER
GRAND RAPIDS   MOCLDY    73  71  93 S9        29.96S
KALAMAZOO      CLOUDY    74  67  78 SW20      30.02R
MARSHALL       PTCLDY    72  65  79 SE6       29.99F
MUSKEGON       PTCLDY    75  69  81 SE10      29.92F
$$
MIZ016>042-300500-
NORTHERN LOWER MICHIGAN

CITY           SKY/WX    TMP DP  RH WIND       PRES   REMARKS
ALPENA         CLOUDY    68  59  73 S12       29.94F
BEAVER ISLAND  CLOUDY    69  67  93 S7        29.86F
BELLAIRE       CLOUDY    72  64  76 S8        29.89S
CADILLAC       LGT RAIN  69  67  93 S6        29.95S
CHARLEVOIX     CLOUDY    71  67  88 S8        29.90F
FRANKFORT      MOCLDY    75  68  77 S10G20    29.87F
GAYLORD        CLOUDY    67  62  84 S10       29.94S
GRAYLING       CLOUDY    69  65  86 S6        29.96S
HARBOR SPRINGS LGT RAIN  70  65  83 CALM      29.89F
HOUGHTON LAKE  CLOUDY    69  62  78 S9G17     29.97S
MANISTEE       MOCLDY    73  66  78 S9        29.89F
OSCODA         CLOUDY    67  57  68 S8        29.97S
PELLSTON       CLOUDY    68  66  93 CALM      29.89F
TRAVERSE CITY  CLOUDY    74  66  76 S8        29.88S
$$
MIZ007>008-015-300500-
EASTERN UPPER MICHIGAN

CITY           SKY/WX    TMP DP  RH WIND       PRES   REMARKS
KINROSS        CLOUDY    63  63 100 SE10      29.88F
MACKINAC ISLAN RAIN      66  66 100 S5        29.90S
NEWBERRY       CLOUDY    65  65  98 S10       29.84F
S. S. MARIE    RAIN      63  61  93 SE7       29.88F
$$
MIZ004>006-011>014-085-300500-
CENTRAL UPPER MICHIGAN

CITY           SKY/WX    TMP DP  RH WIND       PRES   REMARKS
MANISTIQUE     CLOUDY    66  66  99 SW3       29.84R FOG
ESCANABA       CLOUDY    68  63  83 SW5       29.83S
MENOMINEE      MOCLDY    70  66  88 N3        29.81F
SAWYER-GWINN   TSTM      66  64  95 S7        29.82F
$$
MIZ001>003-009>011-084-300500-
WESTERN UPPER MICHIGAN

CITY           SKY/WX    TMP DP  RH WIND       PRES   REMARKS
IRON MOUNTAIN  CLOUDY    65  64  97 E7        29.80F
HOUGHTON       LGT RAIN  62  61  96 CALM      29.79S VSB 1/4
COPPER HARBOR    N/A     65  62  90 SW6       29.77R
$$

ABBREVIATIONS USED IN REMARKS
   TC - TEMPERATURE IN CELSIUS
  WCI - WIND CHILL INDEX
   HX - HEAT INDEX
  VSB - VISIBILITY




USA.gov is the U.S. government's official web portal to all federal, state and local government web resources and services.